Погода в Елховке

Россия / Ульяновская область     54°40′26″N   46°38′56″E
темп.,
°C
ветер,
м/с
пор.,
м/с
влажн.,
%
обл.,
%
осадки,
мм/ч
давл.,
гПа
погр.,
м
20 января, ср
ср2001:00−21з229899 0.0 101644
04:00−19зюз239899 0.2 1016126
07:00−18з2597100 0.2 1015246
10:00−17з2596100 0.6 1016256
13:00−15з3694100 0.4 1017348
16:00−15зюз3694100 0.5 1016334
19:00−17зюз369699 0.1 1018140
22:00−16зюз279798 0.2 1018224
21 января, чт
чт2101:00−15зюз279692 0.1 1019196
04:00−15зюз379695 0.3 1019258
07:00−15зюз389594 0.3 1019246
10:00−14з389597 0.4 1020327
13:00−12з4893100 0.3 1020376
16:00−12зюз4993100 0.6 1019373
19:00−12юз3889100 0.2 1018331
22:00−12юз3895100 0.8 1017358
22 января, пт
пт2201:00−12юз3895100 1.1 1016467
04:00−15зюз2396100 1.1 101647
07:00−16зюз1296100 0.0 101720
10:00−16юз119699 0.0 101920
13:00−12ююз129197 0.0 1019165
16:00−13ю119498 0.0 102020
19:00−14юв2294100 0.0 102127
22:00−14юв379395 0.0 1022168
23 января, сб
сб2301:00−11юв4995100 0.4 1021273
04:00−9ююв4995100 1.4 1020312
07:00−6ююв4895100 0.5 1018261
10:00−2ю41097100 0.7 1018397
13:00+2юз512100100 0.3 1017420
16:00+2юз51398100 0.3 1017489
19:00+1юз51293100 0.0 1017626
22:00+1юз41294100 0.0 1018662
24 января, вс
вс2401:00+1ююз41196100 0.0 1018419
04:00+1ююз51198100 0.0 1018414
07:00+1юз41196100 0.0 1018415
10:00+1ююз41098100 0.4 1018330
13:00+1ююз51196100 0.4 1019406
16:00+1ююз3995100 0.6 1019421
19:000ю31096100 0.3 1020424
22:00+1ю31197100 0.6 1020414